| time (UTC) | temp C | wind direction | speed KPH | gust KPH | rain 1hr cm | rain 24hr cm | rain mn cm | humidity % | barometer mb |
| 20260504024614 | 17 | 16 | 0.0 | 0.0 | 0.00 | 0.00 | 0.00 | 77 | 1016.6 |
| 20260504023010 | 17 | 16 | 0.0 | 0.0 | 0.00 | 0.00 | 0.00 | 77 | 1016.5 |
| 20260504021601 | 18 | 16 | 0.0 | 0.0 | 0.00 | 0.00 | 0.00 | 76 | 1016.3 |
| 20260504020012 | 18 | 16 | 0.0 | 0.0 | 0.00 | 0.00 | 0.00 | 73 | 1016.1 |
| 20260504014513 | 18 | 16 | 0.0 | 0.0 | 0.00 | 0.00 | 0.00 | 74 | 1016.1 |
| 20260504013010 | 20 | 16 | 0.0 | 0.0 | 0.00 | 0.00 | 0.00 | 69 | 1016.1 |
| 20260504011518 | 20 | 16 | 0.0 | 0.0 | 0.00 | 0.00 | 0.00 | 65 | 1016.0 |
| 20260504004606 | 23 | 16 | 0.0 | 0.0 | 0.00 | 0.00 | 0.00 | 57 | 1015.8 |
| 20260504003021 | 25 | 33 | 0.0 | 1.6 | 0.00 | 0.00 | 0.00 | 49 | 1015.7 |
| 20260504000009 | 26 | 259 | 0.0 | 6.4 | 0.00 | 0.00 | 0.00 | 44 | 1015.7 |
| 20260503234518 | 27 | 86 | 0.0 | 3.2 | 0.00 | 0.00 | 0.00 | 43 | 1016.0 |
| 20260503233111 | 27 | 142 | 0.0 | 3.2 | 0.00 | 0.00 | 0.00 | 42 | 1016.0 |
| 20260503231508 | 28 | 111 | 0.0 | 3.2 | 0.00 | 0.00 | 0.00 | 43 | 1016.1 |
| 20260503230111 | 28 | 224 | 0.0 | 6.4 | 0.00 | 0.00 | 0.00 | 41 | 1016.2 |
| 20260503224607 | 27 | 135 | 0.0 | 11.3 | 0.00 | 0.00 | 0.00 | 42 | 1016.2 |
| 20260503223018 | 27 | 133 | 0.0 | 6.4 | 0.00 | 0.00 | 0.00 | 44 | 1016.4 |
| 20260503221522 | 26 | 37 | 0.0 | 1.6 | 0.00 | 0.00 | 0.00 | 48 | 1016.5 |
| 20260503220106 | 27 | 156 | 0.0 | 11.3 | 0.00 | 0.00 | 0.00 | 40 | 1016.5 |
| 20260503214512 | 28 | 210 | 3.2 | 14.5 | 0.00 | 0.00 | 0.00 | 42 | 1016.7 |
| 20260503213015 | 27 | 141 | 1.6 | 3.2 | 0.00 | 0.00 | 0.00 | 42 | 1017.0 |
| 20260503211613 | 27 | 50 | 1.6 | 8.0 | 0.00 | 0.00 | 0.00 | 41 | 1017.2 |
| 20260503210020 | 28 | 143 | 0.0 | 6.4 | 0.00 | 0.00 | 0.00 | 41 | 1017.3 |
| 20260503204511 | 28 | 184 | 0.0 | 8.0 | 0.00 | 0.00 | 0.00 | 45 | 1017.6 |
| 20260503203020 | 26 | 81 | 3.2 | 9.7 | 0.00 | 0.00 | 0.00 | 43 | 1017.9 |
| 20260503201518 | 27 | 295 | 3.2 | 11.3 | 0.00 | 0.00 | 0.00 | 46 | 1018.0 |
| 20260503200016 | 27 | 244 | 3.2 | 9.7 | 0.00 | 0.00 | 0.00 | 41 | 1018.2 |
| 20260503194512 | 27 | 271 | 3.2 | 9.7 | 0.00 | 0.00 | 0.00 | 42 | 1018.6 |
| 20260503193113 | 26 | 304 | 4.8 | 16.1 | 0.00 | 0.00 | 0.00 | 43 | 1018.8 |
| 20260503191520 | 26 | 339 | 6.4 | 16.1 | 0.00 | 0.00 | 0.00 | 43 | 1019.1 |
| 20260503190016 | 26 | 148 | 0.0 | 12.9 | 0.00 | 0.00 | 0.00 | 48 | 1019.3 |
| 20260503183113 | 26 | 189 | 1.6 | 12.9 | 0.00 | 0.00 | 0.00 | 48 | 1019.9 |
| 20260503181513 | 26 | 298 | 6.4 | 17.7 | 0.00 | 0.00 | 0.00 | 45 | 1020.1 |
| 20260503180113 | 26 | 10 | 1.6 | 9.7 | 0.00 | 0.00 | 0.00 | 47 | 1020.3 |
| 20260503174519 | 26 | 240 | 3.2 | 12.9 | 0.00 | 0.00 | 0.00 | 46 | 1020.4 |
| 20260503173009 | 25 | 131 | 0.0 | 12.9 | 0.00 | 0.00 | 0.00 | 48 | 1020.6 |
| 20260503171610 | 25 | 312 | 1.6 | 11.3 | 0.00 | 0.00 | 0.00 | 47 | 1021.0 |
| 20260503160109 | 23 | 280 | 1.6 | 12.9 | 0.00 | 0.00 | 0.00 | 55 | 1021.4 |
| 20260503150104 | 21 | 336 | 1.6 | 6.4 | 0.00 | 0.00 | 0.00 | 62 | 1021.7 |
| 20260503140103 | 16 | 137 | 0.0 | 3.2 | 0.00 | 0.00 | 0.00 | 78 | 1021.6 |
| 20260503130112 | 12 | 328 | 0.0 | 1.6 | 0.00 | 0.00 | 0.00 | 94 | 1021.3 |
| 20260503090106 | 10 | 328 | 0.0 | 0.0 | 0.00 | 0.00 | 0.00 | 91 | 1019.4 |
| 20260503081630 | 10 | 328 | 0.0 | 0.0 | 0.00 | 0.00 | 0.00 | 91 | 1019.4 |
| 20260503071508 | 11 | 328 | 0.0 | 0.0 | 0.00 | 0.00 | 0.00 | 90 | 1019.2 |
| 20260503054507 | 12 | 328 | 0.0 | 0.0 | 0.00 | 0.00 | 0.00 | 88 | 1019.3 |
| 20260503053004 | 12 | 328 | 0.0 | 0.0 | 0.00 | 0.00 | 0.00 | 88 | 1019.3 |
| 20260503051505 | 12 | 328 | 0.0 | 0.0 | 0.00 | 0.00 | 0.00 | 87 | 1019.3 |
| 20260503050034 | 12 | 328 | 0.0 | 0.0 | 0.00 | 0.00 | 0.00 | 87 | 1019.3 |
| 20260503043018 | 12 | 328 | 0.0 | 0.0 | 0.00 | 0.00 | 0.00 | 85 | 1019.2 |
| 20260503041620 | 12 | 328 | 0.0 | 0.0 | 0.00 | 0.00 | 0.00 | 84 | 1019.2 |
| 20260503040108 | 13 | 328 | 0.0 | 0.0 | 0.00 | 0.00 | 0.00 | 84 | 1019.2 |
| 20260503034604 | 13 | 328 | 0.0 | 0.0 | 0.00 | 0.00 | 0.00 | 83 | 1019.2 |
| 20260503033144 | 13 | 328 | 0.0 | 0.0 | 0.00 | 0.00 | 0.00 | 82 | 1019.1 |
| 20260503031508 | 13 | 328 | 0.0 | 0.0 | 0.00 | 0.00 | 0.00 | 80 | 1019.1 |
| 20260503030007 | 14 | 328 | 0.0 | 0.0 | 0.00 | 0.03 | 0.00 | 80 | 1019.0 |